COSMOS 1275 DEB, 42133

Orbit data source: Space-Track

COSMOS 1275 DEB, 42133 is space debris in LEO originally from a launch on Thu, 04 Jun 1981 UTC launched from the Plesetsk Missile And Space Complex (PKMTR). Debris objects in space refer to the collection of defunct objects orbiting the Earth. Examples of debris include non-operational satellites, rocket bodies, and fragments generated from explosions, collisions, or faulty payload assembly.

Loading next visibility...
Identifier
42133, 1981-053QV
Orbit
LEO
Country
Flag of CISCIS
Related business
Manufacturer
Unknown
Mission
Spacecraft
Bus & Motor
Unknown
Mass
Unknown
Launch date (UTC)
1981-06-04 (44 years ago)
Launch vehicle
Unknown
Launch site
Plesetsk Missile And Space Complex (PKMTR)
Object type
Payload
Rocket body
Debris
Shape & HBR
Unknown shape, 0.1 m
Radar Cross Section
Small (<0.1 m²)

Expand to show TLE details & history
Last TLE update: 2 weeks ago

TLE from 2 weeks ago
0 COSMOS 1275 DEB
1 42133U 81053QV  25275.07516831  .00001786  00000-0  21797-2 0  9992
2 42133  83.1346 192.1078 0161028 164.8176 195.7890 13.60015688 85188
Epoch: 2025-10-02T01:48Z
TLE epoch observation values (Epoch: 2025-10-02T01:48:14.541Z)
Latitude
0.00003°
Longitude
154.00617°
Altitude
1,153.559 km
Speed
7.22 km/s
True Right ascension
12h 48m 25s
True Declination
0° 00' 00"
Sunlit
Object was in daylight at epoch
Visualization orbit readout
Latitude
Unknown
Longitude
Unknown
Altitude
Unknown
Speed
Unknown
Apparent Right ascension
Unknown
Apparent Declination
Unknown
Sunlit
N/A
Visualization observer readout
Local Sidereal Time
21:08:51
Azimuth
Unknown
Elevation
Unknown
Doppler factor
Unknown
Orbital elements
Apogee altitude
1,152.133 km
Perigee altitude
913.46 km
Semi-major axis
7,410.933 km
Eccentricity
0.0161
Inclination
83.1346°
RAAN
192.1078°
Arg. of periapsis
164.8176°
True anomaly
195.29647°
Mean anomaly
195.789°
Eccentric anomaly
195.54179°
Mean motion
3.402 °/min
Orbital period
105.82 mins
BSTAR
0.0021797
Loading maneuver chart data...
Computing Atmospheric mass density...
Loading historical data...
Loading historical data...
Loading historical data...
Loading historical data...
Loading historical data...
Loading historical data...
Loading historical data...

Documentation

Showing up to 5 results
|